• In Uzbekistan
  • List of Countries
  • For 7 days
  • Water Temperature
  • Satellite Maps
  • Weather Map
  • Weather Widgets
  • user-avatar
    Login

    Hourly Weather Campinas

    Today, 11 December, Monday

    Time Temperature Precipitation Wind Pressure Humidity
    00:00 +23°C° 0 mm 2 mps 696 mmHg 72%
    01:00 +23°C° 0 mm 1 mps 696 mmHg 72%
    02:00 +23°C° 0 mm 1 mps 695 mmHg 73%
    03:00 +22°C° 0 mm 1 mps 695 mmHg 73%
    04:00 +22°C° 0 mm 1 mps 696 mmHg 73%
    05:00 +22°C° 0 mm 1 mps 696 mmHg 73%
    06:00 +22°C° 0 mm 1 mps 696 mmHg 73%
    07:00 +25°C° 0 mm 1 mps 696 mmHg 64%
    08:00 +27°C° 0 mm 1 mps 697 mmHg 54%
    09:00 +29°C° 0 mm 1 mps 697 mmHg 45%
    10:00 +30°C° 0 mm 1 mps 697 mmHg 42%
    11:00 +32°C° 0 mm 1 mps 698 mmHg 39%
    12:00 +33°C° 0 mm 1 mps 698 mmHg 35%
    13:00 +32°C° 0 mm 2 mps 698 mmHg 39%
    14:00 +31°C° 0 mm 3 mps 697 mmHg 43%
    15:00 +30°C° 0 mm 4 mps 697 mmHg 47%
    16:00 +28°C° 0 mm 5 mps 697 mmHg 56%
    17:00 +26°C° 0 mm 6 mps 697 mmHg 64%
    18:00 +23°C° 0 mm 7 mps 698 mmHg 72%
    19:00 +22°C° 0 mm 7 mps 698 mmHg 73%
    20:00 +21°C° 0 mm 7 mps 699 mmHg 73%
    21:00 +20°C° 0 mm 7 mps 699 mmHg 74%
    22:00 +20°C° 0 mm 6 mps 700 mmHg 75%
    23:00 +20°C° 0 mm 5 mps 700 mmHg 76%

    Tomorrow, 12 December, Tuesday

    Time Temperature Precipitation Wind Pressure Humidity
    00:00 +19°C° 0 mm 5 mps 700 mmHg 76%
    01:00 +19°C° 0 mm 5 mps 700 mmHg 77%
    02:00 +19°C° 0 mm 4 mps 700 mmHg 78%
    03:00 +18°C° 0 mm 4 mps 700 mmHg 79%
    04:00 +18°C° 0 mm 4 mps 700 mmHg 79%
    05:00 +18°C° 0 mm 4 mps 700 mmHg 79%
    06:00 +18°C° 0 mm 4 mps 701 mmHg 79%
    07:00 +20°C° 0 mm 5 mps 701 mmHg 74%
    08:00 +21°C° 0 mm 5 mps 702 mmHg 69%
    09:00 +23°C° 0 mm 5 mps 703 mmHg 64%
    10:00 +25°C° 0 mm 5 mps 703 mmHg 60%
    11:00 +26°C° 0 mm 5 mps 703 mmHg 56%
    12:00 +28°C° 0 mm 5 mps 703 mmHg 52%
    13:00 +28°C° 0 mm 5 mps 703 mmHg 53%
    14:00 +28°C° 0 mm 5 mps 702 mmHg 53%
    15:00 +28°C° 0 mm 5 mps 702 mmHg 54%
    16:00 +26°C° 0 mm 5 mps 702 mmHg 58%
    17:00 +25°C° 0 mm 5 mps 701 mmHg 62%
    18:00 +23°C° 0 mm 5 mps 701 mmHg 67%
    19:00 +21°C° 0 mm 5 mps 702 mmHg 70%
    20:00 +20°C° 0 mm 5 mps 702 mmHg 73%
    21:00 +19°C° 0 mm 5 mps 703 mmHg 76%
    22:00 +17°C° 0 mm 5 mps 703 mmHg 77%
    23:00 +17°C° 0 mm 5 mps 703 mmHg 78%

    Day after tomorrow, 13 December, Wednesday

    Time Temperature Precipitation Wind Pressure Humidity
    00:00 +17°C° 0 mm 4 mps 703 mmHg 80%
    01:00 +17°C° 0 mm 4 mps 703 mmHg 80%
    02:00 +17°C° 0 mm 4 mps 702 mmHg 81%
    03:00 +16°C° 0 mm 3 mps 702 mmHg 82%
    04:00 +16°C° 0 mm 3 mps 702 mmHg 82%
    05:00 +16°C° 0 mm 3 mps 703 mmHg 82%
    06:00 +16°C° 0 mm 3 mps 703 mmHg 82%
    07:00 +19°C° 0 mm 3 mps 703 mmHg 75%
    08:00 +21°C° 0 mm 3 mps 704 mmHg 67%
    09:00 +25°C° 0 mm 3 mps 705 mmHg 59%
    10:00 +27°C° 0 mm 2 mps 705 mmHg 54%
    11:00 +28°C° 0 mm 2 mps 705 mmHg 50%
    12:00 +30°C° 0 mm 1 mps 705 mmHg 45%
    13:00 +30°C° 0 mm 2 mps 704 mmHg 44%
    14:00 +31°C° 0 mm 2 mps 704 mmHg 43%
    15:00 +31°C° 0 mm 2 mps 703 mmHg 42%
    16:00 +30°C° 0 mm 2 mps 703 mmHg 47%
    17:00 +29°C° 0 mm 3 mps 703 mmHg 51%
    18:00 +28°C° 0 mm 3 mps 703 mmHg 56%
    19:00 +26°C° 0 mm 3 mps 703 mmHg 62%
    20:00 +23°C° 0 mm 4 mps 703 mmHg 68%
    21:00 +21°C° 0 mm 4 mps 704 mmHg 74%
    22:00 +20°C° 0 mm 3 mps 704 mmHg 76%
    23:00 +20°C° 0 mm 3 mps 704 mmHg 78%

    14 December, Thursday

    Time Temperature Precipitation Wind Pressure Humidity
    00:00 +19°C° 0 mm 3 mps 704 mmHg 81%
    01:00 +19°C° 0 mm 2 mps 703 mmHg 82%
    02:00 +19°C° 0 mm 2 mps 703 mmHg 83%
    03:00 +18°C° 0 mm 2 mps 702 mmHg 84%
    04:00 +19°C° 0 mm 1 mps 703 mmHg 85%
    05:00 +19°C° 0 mm 1 mps 703 mmHg 85%
    06:00 +20°C° 0 mm 1 mps 703 mmHg 85%
    07:00 +22°C° 0 mm 1 mps 704 mmHg 76%
    08:00 +24°C° 0 mm 1 mps 704 mmHg 67%
    09:00 +27°C° 0 mm 1 mps 705 mmHg 58%
    10:00 +28°C° 0 mm 1 mps 704 mmHg 53%
    11:00 +30°C° 0 mm 1 mps 704 mmHg 48%
    12:00 +32°C° 0 mm 1 mps 704 mmHg 43%
    13:00 +32°C° 0 mm 1 mps 703 mmHg 41%
    14:00 +32°C° 0 mm 1 mps 703 mmHg 39%
    15:00 +33°C° 0 mm 1 mps 702 mmHg 37%
    16:00 +32°C° 0 mm 2 mps 702 mmHg 41%
    17:00 +31°C° 0 mm 2 mps 702 mmHg 46%
    18:00 +30°C° 0 mm 2 mps 702 mmHg 50%
    19:00 +28°C° 0 mm 2 mps 702 mmHg 56%
    20:00 +26°C° 0 mm 3 mps 702 mmHg 62%
    21:00 +25°C° 0 mm 3 mps 702 mmHg 67%
    22:00 +24°C° 0 mm 3 mps 702 mmHg 71%
    23:00 +23°C° 0 mm 2 mps 702 mmHg 74%

    15 December, Friday

    Time Temperature Precipitation Wind Pressure Humidity
    00:00 +21°C° 0 mm 2 mps 702 mmHg 77%
    01:00 +21°C° 0 mm 2 mps 701 mmHg 77%
    02:00 +21°C° 0 mm 2 mps 701 mmHg 76%
    03:00 +22°C° 0 mm 1 mps 701 mmHg 76%
    04:00 +22°C° 0 mm 1 mps 701 mmHg 76%
    05:00 +21°C° 0 mm 1 mps 702 mmHg 77%
    06:00 +21°C° 0 mm 1 mps 702 mmHg 77%
    07:00 +23°C° 0 mm 2 mps 702 mmHg 70%
    08:00 +26°C° 0 mm 2 mps 703 mmHg 63%
    09:00 +28°C° 0 mm 3 mps 703 mmHg 56%
    10:00 +29°C° 0 mm 2 mps 703 mmHg 52%
    11:00 +30°C° 0 mm 2 mps 703 mmHg 47%
    12:00 +32°C° 0 mm 2 mps 703 mmHg 42%
    13:00 +32°C° 0 mm 2 mps 702 mmHg 41%
    14:00 +34°C° 0 mm 2 mps 702 mmHg 39%
    15:00 +34°C° 0 mm 2 mps 701 mmHg 38%
    16:00 +32°C° 0 mm 2 mps 701 mmHg 42%
    17:00 +31°C° 0 mm 2 mps 701 mmHg 47%
    18:00 +30°C° 0 mm 2 mps 701 mmHg 51%
    19:00 +28°C° 0 mm 2 mps 701 mmHg 52%
    20:00 +27°C° 0 mm 2 mps 701 mmHg 52%
    21:00 +25°C° 0 mm 3 mps 701 mmHg 53%
    22:00 +24°C° 0 mm 3 mps 701 mmHg 52%
    23:00 +24°C° 0 mm 3 mps 701 mmHg 52%

    16 December, Saturday

    Time Temperature Precipitation Wind Pressure Humidity
    00:00 +22°C° 0 mm 3 mps 700 mmHg 51%
    01:00 +21°C° 0 mm 2 mps 700 mmHg 53%
    02:00 +20°C° 0 mm 2 mps 700 mmHg 54%
    03:00 +21°C° 0 mm 1 mps 700 mmHg 55%
    04:00 +21°C° 0 mm 1 mps 700 mmHg 59%
    05:00 +21°C° 0 mm 1 mps 701 mmHg 62%
    06:00 +20°C° 0 mm 1 mps 701 mmHg 65%
    07:00 +23°C° 0 mm 1 mps 702 mmHg 60%
    08:00 +26°C° 0 mm 1 mps 702 mmHg 56%
    09:00 +28°C° 0 mm 2 mps 703 mmHg 51%
    10:00 +30°C° 0 mm 2 mps 703 mmHg 47%
    11:00 +31°C° 0 mm 2 mps 703 mmHg 42%
    12:00 +34°C° 0 mm 2 mps 702 mmHg 38%
    13:00 +33°C° 0 mm 1 mps 702 mmHg 36%
    14:00 +34°C° 0 mm 1 mps 701 mmHg 34%
    15:00 +34°C° 0 mm 1 mps 701 mmHg 32%
    16:00 +33°C° 0 mm 1 mps 701 mmHg 36%
    17:00 +32°C° 0 mm 2 mps 701 mmHg 41%
    18:00 +30°C° 0 mm 2 mps 701 mmHg 45%
    19:00 +29°C° 0 mm 2 mps 701 mmHg 50%
    20:00 +27°C° 0 mm 3 mps 701 mmHg 55%
    21:00 +25°C° 0 mm 3 mps 701 mmHg 59%
    22:00 +25°C° 0 mm 3 mps 701 mmHg 64%
    23:00 +24°C° 0 mm 3 mps 701 mmHg 68%
    Show more